VBD205 SBBE-SBEG

Flight info

Callsign VBD205
Flight time 2h 49m
Altitude 12000
Route ILMAN UZ81 KULAB
Aircraft TBM9/L-SDFGRWY/S

Departure

Time 2026-05-07 15:40
Airport Val de Cans/Júlio Cezar Ribeiro International Airport (SBBE)

Arrival

Time 2026-05-07 18:30
Airport Eduardo Gomes International Airport (SBEG)
Time Latitude Longitude Altitude Speed Heading
2026-05-07 15:33 -1.38407 -48.47485 38 ft 0 kts 105°
2026-05-07 15:34 -1.38407 -48.47484 38 ft 1 kts 93°
2026-05-07 15:34 -1.38404 -48.47484 38 ft 1 kts 295°
2026-05-07 15:35 -1.38401 -48.47512 37 ft 6 kts 267°
2026-05-07 15:35 -1.38396 -48.47563 37 ft 9 kts 280°
2026-05-07 15:35 -1.38394 -48.47585 37 ft 0 kts 276°
2026-05-07 15:36 -1.38393 -48.47597 37 ft 4 kts 272°
2026-05-07 15:36 -1.38383 -48.47631 37 ft 6 kts 303°
2026-05-07 15:36 -1.38343 -48.47649 38 ft 7 kts 352°
2026-05-07 15:37 -1.38295 -48.47651 39 ft 7 kts
2026-05-07 15:37 -1.38245 -48.47646 40 ft 7 kts
2026-05-07 15:37 -1.38198 -48.47642 41 ft 7 kts
2026-05-07 15:37 -1.38150 -48.47639 41 ft 7 kts
2026-05-07 15:38 -1.38101 -48.47635 41 ft 7 kts
2026-05-07 15:38 -1.38049 -48.47630 41 ft 9 kts
2026-05-07 15:38 -1.37981 -48.47621 40 ft 11 kts 15°
2026-05-07 15:38 -1.37935 -48.47603 40 ft 4 kts 234°
2026-05-07 15:39 -1.37964 -48.47624 40 ft 6 kts 187°
2026-05-07 15:39 -1.38087 -48.47633 41 ft 45 kts 184°
2026-05-07 15:39 -1.38626 -48.47695 89 ft 102 kts 187°
2026-05-07 15:39 -1.39425 -48.47776 350 ft 129 kts 187°
2026-05-07 15:40 -1.40395 -48.47893 612 ft 150 kts 189°
2026-05-07 15:40 -1.41476 -48.48056 872 ft 164 kts 190°
2026-05-07 15:40 -1.42657 -48.48265 1110 ft 181 kts 192°
2026-05-07 15:40 -1.43946 -48.48537 1366 ft 196 kts 194°
2026-05-07 15:41 -1.45290 -48.48889 1627 ft 203 kts 203°
2026-05-07 15:41 -1.46338 -48.49812 1897 ft 206 kts 242°
2026-05-07 15:41 -1.46565 -48.51208 2184 ft 208 kts 278°
2026-05-07 15:41 -1.46358 -48.52639 2434 ft 210 kts 275°
2026-05-07 15:42 -1.46364 -48.54103 2681 ft 212 kts 267°
2026-05-07 15:42 -1.46461 -48.55574 2933 ft 213 kts 267°
2026-05-07 15:42 -1.46542 -48.57050 3184 ft 213 kts 268°
2026-05-07 15:42 -1.46615 -48.58534 3435 ft 214 kts 268°
2026-05-07 15:43 -1.46686 -48.60024 3684 ft 215 kts 268°
2026-05-07 15:43 -1.46761 -48.61518 3932 ft 216 kts 268°
2026-05-07 15:43 -1.46836 -48.63020 4182 ft 217 kts 268°
2026-05-07 15:43 -1.46909 -48.64528 4430 ft 217 kts 268°
2026-05-07 15:44 -1.46983 -48.66015 4674 ft 217 kts 268°
2026-05-07 15:44 -1.47059 -48.67528 4925 ft 218 kts 268°
2026-05-07 15:44 -1.47129 -48.69046 5175 ft 219 kts 268°
2026-05-07 15:44 -1.47207 -48.70569 5420 ft 220 kts 268°
2026-05-07 15:45 -1.47286 -48.72093 5668 ft 220 kts 268°
2026-05-07 15:45 -1.47362 -48.73616 5916 ft 220 kts 268°
2026-05-07 15:45 -1.47436 -48.75143 6165 ft 220 kts 268°
2026-05-07 15:45 -1.47511 -48.76672 6413 ft 221 kts 268°
2026-05-07 15:46 -1.47663 -48.79740 6910 ft 221 kts 268°
2026-05-07 15:46 -1.47739 -48.81278 7158 ft 222 kts 268°
2026-05-07 15:46 -1.47815 -48.82821 7407 ft 222 kts 268°
2026-05-07 15:47 -1.47891 -48.84366 7655 ft 223 kts 268°
2026-05-07 15:47 -1.47968 -48.85913 7906 ft 223 kts 268°
2026-05-07 15:47 -1.48044 -48.87465 8152 ft 224 kts 268°
2026-05-07 15:47 -1.48122 -48.89021 8401 ft 224 kts 268°
2026-05-07 15:48 -1.48198 -48.90583 8650 ft 225 kts 268°
2026-05-07 15:48 -1.48276 -48.92150 8900 ft 227 kts 268°
2026-05-07 15:48 -1.48353 -48.93728 9147 ft 228 kts 268°
2026-05-07 15:48 -1.48431 -48.95307 9395 ft 228 kts 268°
2026-05-07 15:49 -1.48509 -48.96894 9647 ft 229 kts 268°
2026-05-07 15:49 -1.48589 -48.98482 9892 ft 229 kts 268°
2026-05-07 15:49 -1.48668 -49.00071 10143 ft 229 kts 268°
2026-05-07 15:49 -1.48745 -49.01665 10389 ft 230 kts 268°
2026-05-07 15:50 -1.48824 -49.03264 10638 ft 231 kts 268°
2026-05-07 15:50 -1.48903 -49.04865 10889 ft 231 kts 268°
2026-05-07 15:50 -1.48982 -49.06474 11135 ft 232 kts 268°
2026-05-07 15:50 -1.49064 -49.08088 11383 ft 233 kts 268°
2026-05-07 15:51 -1.49142 -49.09701 11631 ft 232 kts 268°
2026-05-07 15:51 -1.49221 -49.11315 11879 ft 233 kts 268°
2026-05-07 15:51 -1.49300 -49.12942 11996 ft 239 kts 268°
2026-05-07 15:51 -1.49490 -49.14617 11996 ft 247 kts 261°
2026-05-07 15:52 -1.49789 -49.16333 12002 ft 254 kts 261°
2026-05-07 15:52 -1.50084 -49.18097 12006 ft 261 kts 262°
2026-05-07 15:52 -1.50378 -49.19896 12009 ft 264 kts 262°
2026-05-07 15:52 -1.50679 -49.21715 12011 ft 266 kts 261°
2026-05-07 15:53 -1.50984 -49.23545 12011 ft 267 kts 261°
2026-05-07 15:53 -1.51290 -49.25381 12010 ft 268 kts 261°
2026-05-07 15:53 -1.51595 -49.27222 12008 ft 269 kts 261°
2026-05-07 15:53 -1.51901 -49.29063 12008 ft 269 kts 261°
2026-05-07 15:54 -1.52207 -49.30910 12005 ft 269 kts 261°
2026-05-07 15:54 -1.52514 -49.32757 12002 ft 269 kts 261°
2026-05-07 15:54 -1.52822 -49.34604 12000 ft 269 kts 261°
2026-05-07 15:54 -1.53128 -49.36450 11997 ft 269 kts 261°
2026-05-07 15:55 -1.53435 -49.38296 11995 ft 269 kts 261°
2026-05-07 15:55 -1.53741 -49.40143 11995 ft 269 kts 261°
2026-05-07 15:55 -1.54048 -49.41989 11996 ft 269 kts 261°
2026-05-07 15:55 -1.54354 -49.43834 11995 ft 269 kts 261°
2026-05-07 15:56 -1.54660 -49.45678 11995 ft 269 kts 261°
2026-05-07 15:56 -1.54965 -49.47525 11995 ft 269 kts 261°
2026-05-07 15:56 -1.55273 -49.49370 11990 ft 269 kts 261°
2026-05-07 15:56 -1.55579 -49.51217 11995 ft 269 kts 261°
2026-05-07 15:57 -1.55884 -49.53064 11993 ft 269 kts 261°
2026-05-07 15:57 -1.56192 -49.54910 11990 ft 269 kts 261°
2026-05-07 15:57 -1.56499 -49.56756 11993 ft 269 kts 261°
2026-05-07 15:57 -1.56804 -49.58600 11994 ft 269 kts 261°
2026-05-07 15:58 -1.57110 -49.60445 11994 ft 269 kts 261°
2026-05-07 15:58 -1.57417 -49.62292 11990 ft 269 kts 261°
2026-05-07 15:58 -1.57722 -49.64137 11991 ft 269 kts 261°
2026-05-07 15:58 -1.58029 -49.65983 11996 ft 269 kts 261°
2026-05-07 15:59 -1.58334 -49.67828 11994 ft 269 kts 261°
2026-05-07 15:59 -1.58641 -49.69673 11987 ft 269 kts 261°
2026-05-07 15:59 -1.58946 -49.71516 11994 ft 269 kts 261°
2026-05-07 15:59 -1.59252 -49.73362 11994 ft 269 kts 261°
2026-05-07 16:00 -1.59559 -49.75208 11994 ft 269 kts 261°
2026-05-07 16:00 -1.59865 -49.77053 11989 ft 269 kts 262°
2026-05-07 16:00 -1.60170 -49.78900 11993 ft 269 kts 261°
2026-05-07 16:00 -1.60480 -49.80770 11994 ft 269 kts 261°
2026-05-07 16:01 -1.60786 -49.82615 11996 ft 269 kts 261°
2026-05-07 16:01 -1.61092 -49.84459 11994 ft 269 kts 261°
2026-05-07 16:01 -1.61398 -49.86302 11995 ft 269 kts 262°
2026-05-07 16:01 -1.61704 -49.88148 11997 ft 269 kts 261°
2026-05-07 16:02 -1.62010 -49.89998 11993 ft 270 kts 262°
2026-05-07 16:02 -1.62315 -49.91848 11994 ft 270 kts 261°
2026-05-07 16:02 -1.62623 -49.93696 11994 ft 269 kts 261°
2026-05-07 16:02 -1.62930 -49.95542 11986 ft 269 kts 261°
2026-05-07 16:03 -1.63236 -49.97388 11991 ft 269 kts 261°
2026-05-07 16:03 -1.63540 -49.99233 11995 ft 269 kts 261°
2026-05-07 16:03 -1.63847 -50.01079 11996 ft 269 kts 261°
2026-05-07 16:03 -1.64152 -50.02925 11995 ft 269 kts 261°
2026-05-07 16:04 -1.64458 -50.04771 11988 ft 269 kts 261°
2026-05-07 16:04 -1.64764 -50.06617 11995 ft 269 kts 261°
2026-05-07 16:04 -1.65070 -50.08463 11995 ft 269 kts 261°
2026-05-07 16:04 -1.65375 -50.10308 11994 ft 269 kts 261°
2026-05-07 16:05 -1.65681 -50.12151 11988 ft 269 kts 261°
2026-05-07 16:05 -1.65986 -50.13998 11993 ft 269 kts 261°
2026-05-07 16:05 -1.66292 -50.15841 11994 ft 269 kts 261°
2026-05-07 16:05 -1.66597 -50.17687 11994 ft 269 kts 261°
2026-05-07 16:06 -1.66903 -50.19532 11993 ft 269 kts 261°
2026-05-07 16:06 -1.67209 -50.21378 11993 ft 269 kts 261°
2026-05-07 16:06 -1.67513 -50.23223 11994 ft 269 kts 261°
2026-05-07 16:06 -1.67819 -50.25069 11995 ft 269 kts 261°
2026-05-07 16:07 -1.68129 -50.26939 11989 ft 269 kts 262°
2026-05-07 16:07 -1.68434 -50.28781 11992 ft 269 kts 261°
2026-05-07 16:07 -1.68739 -50.30627 11994 ft 269 kts 262°
2026-05-07 16:07 -1.69040 -50.32452 11994 ft 269 kts 261°
2026-05-07 16:08 -1.69248 -50.33699 11994 ft 269 kts 261°
2026-05-07 16:08 -1.69554 -50.35547 11988 ft 270 kts 261°
2026-05-07 16:08 -1.69860 -50.37396 11994 ft 269 kts 261°
2026-05-07 16:08 -1.70165 -50.39243 11994 ft 269 kts 261°
2026-05-07 16:09 -1.70471 -50.41091 11993 ft 270 kts 261°
2026-05-07 16:09 -1.70777 -50.42942 11989 ft 270 kts 262°
2026-05-07 16:09 -1.71083 -50.44791 11990 ft 269 kts 261°
2026-05-07 16:09 -1.71388 -50.46635 11994 ft 269 kts 261°
2026-05-07 16:10 -1.71694 -50.48482 11994 ft 269 kts 261°
2026-05-07 16:10 -1.71999 -50.50330 11996 ft 270 kts 262°
2026-05-07 16:10 -1.72305 -50.52177 11996 ft 269 kts 261°
2026-05-07 16:10 -1.72610 -50.54025 11995 ft 269 kts 261°
2026-05-07 16:11 -1.72917 -50.55873 11993 ft 270 kts 261°
2026-05-07 16:11 -1.73221 -50.57719 11994 ft 269 kts 262°
2026-05-07 16:11 -1.73527 -50.59566 11988 ft 269 kts 261°
2026-05-07 16:11 -1.73832 -50.61413 11994 ft 269 kts 261°
2026-05-07 16:12 -1.74139 -50.63261 11995 ft 270 kts 261°
2026-05-07 16:12 -1.74446 -50.65134 11996 ft 269 kts 261°
2026-05-07 16:12 -1.74753 -50.66982 11994 ft 269 kts 261°
2026-05-07 16:12 -1.75058 -50.68828 11993 ft 269 kts 261°
2026-05-07 16:13 -1.75364 -50.70675 11995 ft 269 kts 262°
2026-05-07 16:13 -1.75667 -50.72520 11995 ft 270 kts 262°
2026-05-07 16:13 -1.75973 -50.74370 11993 ft 270 kts 261°
2026-05-07 16:13 -1.76279 -50.76219 11989 ft 270 kts 261°
2026-05-07 16:14 -1.76586 -50.78068 11994 ft 270 kts 261°
2026-05-07 16:14 -1.76893 -50.79916 11995 ft 270 kts 261°
2026-05-07 16:14 -1.77198 -50.81767 11989 ft 270 kts 262°
2026-05-07 16:14 -1.77500 -50.83617 11988 ft 270 kts 262°
2026-05-07 16:15 -1.77806 -50.85466 11990 ft 269 kts 261°
2026-05-07 16:15 -1.78113 -50.87311 11994 ft 269 kts 261°
2026-05-07 16:15 -1.78418 -50.89158 11994 ft 269 kts 261°
2026-05-07 16:15 -1.78723 -50.91006 11987 ft 269 kts 261°
2026-05-07 16:16 -1.79027 -50.92853 11986 ft 269 kts 261°
2026-05-07 16:16 -1.79333 -50.94700 11991 ft 269 kts 261°
2026-05-07 16:16 -1.79639 -50.96548 11996 ft 270 kts 262°
2026-05-07 16:16 -1.79943 -50.98398 11995 ft 270 kts 261°
2026-05-07 16:17 -1.80250 -51.00246 11989 ft 270 kts 261°
2026-05-07 16:17 -1.80554 -51.02099 11992 ft 270 kts 262°
2026-05-07 16:17 -1.80859 -51.03948 11994 ft 270 kts 262°
2026-05-07 16:17 -1.81166 -51.05798 11995 ft 270 kts 261°
2026-05-07 16:18 -1.81471 -51.07646 11994 ft 270 kts 262°
2026-05-07 16:18 -1.81776 -51.09493 11983 ft 269 kts 261°
2026-05-07 16:18 -1.82081 -51.11343 11990 ft 269 kts 261°
2026-05-07 16:18 -1.82386 -51.13190 11994 ft 269 kts 262°
2026-05-07 16:19 -1.82695 -51.15061 11994 ft 269 kts 261°
2026-05-07 16:19 -1.82999 -51.16905 11994 ft 269 kts 262°
2026-05-07 16:19 -1.83304 -51.18751 11990 ft 269 kts 261°
2026-05-07 16:19 -1.83607 -51.20597 11989 ft 269 kts 262°
2026-05-07 16:20 -1.83913 -51.22444 11994 ft 269 kts 261°
2026-05-07 16:20 -1.84218 -51.24292 11994 ft 270 kts 262°
2026-05-07 16:20 -1.84522 -51.26140 11993 ft 269 kts 261°
2026-05-07 16:20 -1.84827 -51.27985 11994 ft 269 kts 261°
2026-05-07 16:21 -1.85132 -51.29832 11988 ft 269 kts 261°
2026-05-07 16:21 -1.85437 -51.31677 11995 ft 269 kts 262°
2026-05-07 16:21 -1.85741 -51.33525 11994 ft 270 kts 261°
2026-05-07 16:21 -1.86045 -51.35373 11994 ft 269 kts 262°
2026-05-07 16:22 -1.86350 -51.37220 11993 ft 269 kts 261°
2026-05-07 16:22 -1.86655 -51.39066 11994 ft 269 kts 262°
2026-05-07 16:22 -1.86959 -51.40911 11987 ft 269 kts 261°
2026-05-07 16:22 -1.87263 -51.42752 11990 ft 269 kts 262°
2026-05-07 16:23 -1.87567 -51.44602 11990 ft 269 kts 261°
2026-05-07 16:23 -1.87872 -51.46448 11993 ft 269 kts 262°
2026-05-07 16:23 -1.88176 -51.48294 11994 ft 269 kts 261°
2026-05-07 16:23 -1.88484 -51.50164 11994 ft 269 kts 262°
2026-05-07 16:24 -1.88789 -51.52010 11987 ft 269 kts 261°
2026-05-07 16:24 -1.89093 -51.53856 11986 ft 269 kts 262°
2026-05-07 16:24 -1.89397 -51.55701 11993 ft 269 kts 261°
2026-05-07 16:24 -1.89701 -51.57546 11994 ft 269 kts 262°
2026-05-07 16:25 -1.90005 -51.59393 11994 ft 269 kts 261°
2026-05-07 16:25 -1.90310 -51.61240 11994 ft 269 kts 262°
2026-05-07 16:25 -1.90613 -51.63085 11994 ft 269 kts 261°
2026-05-07 16:25 -1.90918 -51.64931 11988 ft 269 kts 262°
2026-05-07 16:26 -1.91221 -51.66779 11986 ft 270 kts 262°
2026-05-07 16:26 -1.91525 -51.68629 11988 ft 270 kts 262°
2026-05-07 16:26 -1.91832 -51.70479 11994 ft 270 kts 261°
2026-05-07 16:26 -1.92035 -51.71705 11994 ft 270 kts 262°
2026-05-07 16:27 -1.92441 -51.74177 11994 ft 270 kts 262°
2026-05-07 16:27 -1.92745 -51.76025 11994 ft 269 kts 261°
2026-05-07 16:27 -1.93049 -51.77873 11989 ft 269 kts 262°
2026-05-07 16:27 -1.93353 -51.79720 11989 ft 269 kts 261°
2026-05-07 16:28 -1.93658 -51.81567 11989 ft 269 kts 262°
2026-05-07 16:28 -1.93961 -51.83415 11994 ft 270 kts 262°
2026-05-07 16:28 -1.94266 -51.85263 11994 ft 270 kts 261°
2026-05-07 16:28 -1.94570 -51.87112 11993 ft 270 kts 261°
2026-05-07 16:29 -1.94874 -51.88962 11993 ft 270 kts 262°
2026-05-07 16:29 -1.95179 -51.90811 11994 ft 270 kts 262°
2026-05-07 16:29 -1.95483 -51.92660 11990 ft 270 kts 261°
2026-05-07 16:29 -1.95788 -51.94510 11991 ft 270 kts 262°
2026-05-07 16:30 -1.96092 -51.96359 11994 ft 270 kts 262°
2026-05-07 16:30 -1.96400 -51.98231 11996 ft 270 kts 261°
2026-05-07 16:30 -1.96704 -52.00081 11994 ft 270 kts 262°
2026-05-07 16:30 -1.97008 -52.01930 11997 ft 269 kts 261°
2026-05-07 16:31 -1.97313 -52.03779 11991 ft 270 kts 262°
2026-05-07 16:31 -1.97616 -52.05628 11991 ft 269 kts 261°
2026-05-07 16:31 -1.97921 -52.07476 11995 ft 269 kts 261°
2026-05-07 16:31 -1.98224 -52.09324 11994 ft 270 kts 262°
2026-05-07 16:32 -1.98529 -52.11172 11995 ft 269 kts 261°
2026-05-07 16:32 -1.98834 -52.13021 11994 ft 269 kts 262°
2026-05-07 16:32 -1.99138 -52.14867 11994 ft 270 kts 261°
2026-05-07 16:32 -1.99440 -52.16715 11994 ft 269 kts 262°
2026-05-07 16:33 -1.99743 -52.18563 11994 ft 269 kts 262°
2026-05-07 16:33 -2.00048 -52.20410 11988 ft 269 kts 261°
2026-05-07 16:33 -2.00351 -52.22255 11987 ft 269 kts 262°
2026-05-07 16:33 -2.00655 -52.24103 11994 ft 269 kts 261°
2026-05-07 16:34 -2.00958 -52.25949 11994 ft 269 kts 262°
2026-05-07 16:34 -2.01261 -52.27793 11994 ft 269 kts 261°
2026-05-07 16:34 -2.01564 -52.29639 11993 ft 269 kts 262°
2026-05-07 16:34 -2.01867 -52.31486 11995 ft 269 kts 261°
2026-05-07 16:35 -2.02173 -52.33334 11994 ft 269 kts 261°
2026-05-07 16:35 -2.02475 -52.35183 11994 ft 269 kts 262°
2026-05-07 16:35 -2.02779 -52.37031 11994 ft 270 kts 262°
2026-05-07 16:35 -2.03082 -52.38884 11993 ft 270 kts 262°
2026-05-07 16:36 -2.03388 -52.40738 11996 ft 270 kts 261°
2026-05-07 16:36 -2.03693 -52.42589 11994 ft 270 kts 262°
2026-05-07 16:36 -2.03996 -52.44443 11996 ft 270 kts 262°
2026-05-07 16:36 -2.04300 -52.46297 11996 ft 270 kts 262°
2026-05-07 16:37 -2.04608 -52.48175 11996 ft 270 kts 262°
2026-05-07 16:37 -2.04909 -52.50030 11994 ft 270 kts 262°
2026-05-07 16:37 -2.05207 -52.51881 11994 ft 270 kts 262°
2026-05-07 16:37 -2.05507 -52.53732 11991 ft 269 kts 262°
2026-05-07 16:38 -2.05807 -52.55578 11990 ft 269 kts 262°
2026-05-07 16:38 -2.06106 -52.57426 11994 ft 269 kts 262°
2026-05-07 16:38 -2.06406 -52.59274 11994 ft 269 kts 262°
2026-05-07 16:38 -2.06704 -52.61121 11994 ft 269 kts 262°
2026-05-07 16:39 -2.07003 -52.62972 11992 ft 270 kts 262°
2026-05-07 16:39 -2.07304 -52.64822 11996 ft 270 kts 262°
2026-05-07 16:39 -2.07605 -52.66675 11986 ft 270 kts 262°
2026-05-07 16:39 -2.07904 -52.68525 11995 ft 270 kts 262°
2026-05-07 16:40 -2.08203 -52.70377 11996 ft 270 kts 262°
2026-05-07 16:40 -2.08503 -52.72230 11995 ft 270 kts 262°
2026-05-07 16:40 -2.08703 -52.73456 11991 ft 270 kts 262°
2026-05-07 16:40 -2.09007 -52.75330 11994 ft 269 kts 262°
2026-05-07 16:41 -2.09308 -52.77179 11995 ft 269 kts 262°
2026-05-07 16:41 -2.09611 -52.79030 11995 ft 270 kts 262°
2026-05-07 16:41 -2.09911 -52.80886 11991 ft 270 kts 262°
2026-05-07 16:41 -2.10214 -52.82739 11990 ft 270 kts 262°
2026-05-07 16:42 -2.10516 -52.84590 11991 ft 270 kts 262°
2026-05-07 16:42 -2.10816 -52.86442 11996 ft 270 kts 262°
2026-05-07 16:42 -2.11120 -52.88292 11991 ft 270 kts 262°
2026-05-07 16:42 -2.11421 -52.90144 11991 ft 270 kts 262°
2026-05-07 16:43 -2.11722 -52.91997 11994 ft 270 kts 262°
2026-05-07 16:43 -2.12024 -52.93849 11993 ft 270 kts 262°
2026-05-07 16:43 -2.12326 -52.95698 11994 ft 269 kts 262°
2026-05-07 16:43 -2.12627 -52.97548 11993 ft 269 kts 262°
2026-05-07 16:44 -2.12928 -52.99396 11995 ft 269 kts 262°
2026-05-07 16:44 -2.13227 -53.01243 11996 ft 270 kts 262°
2026-05-07 16:44 -2.13530 -53.03094 11994 ft 270 kts 262°
2026-05-07 16:44 -2.13831 -53.04944 11994 ft 269 kts 262°
2026-05-07 16:45 -2.14132 -53.06793 11991 ft 269 kts 262°
2026-05-07 16:45 -2.14433 -53.08641 11990 ft 269 kts 262°
2026-05-07 16:45 -2.14733 -53.10489 11988 ft 269 kts 262°
2026-05-07 16:45 -2.15034 -53.12334 11986 ft 269 kts 262°
2026-05-07 16:46 -2.15334 -53.14183 11994 ft 269 kts 262°
2026-05-07 16:46 -2.15636 -53.16031 11994 ft 269 kts 262°
2026-05-07 16:46 -2.15938 -53.17879 11996 ft 269 kts 262°
2026-05-07 16:46 -2.16239 -53.19726 11994 ft 269 kts 262°
2026-05-07 16:47 -2.16545 -53.21598 11995 ft 269 kts 262°
2026-05-07 16:47 -2.16846 -53.23446 11994 ft 269 kts 262°
2026-05-07 16:47 -2.17148 -53.25293 11995 ft 269 kts 262°
2026-05-07 16:47 -2.17449 -53.27141 11995 ft 270 kts 262°
2026-05-07 16:48 -2.17751 -53.28991 11994 ft 269 kts 262°
2026-05-07 16:48 -2.18053 -53.30839 11994 ft 269 kts 262°
2026-05-07 16:48 -2.18354 -53.32687 11994 ft 269 kts 262°
2026-05-07 16:48 -2.18655 -53.34534 11994 ft 269 kts 262°
2026-05-07 16:49 -2.18957 -53.36382 11993 ft 269 kts 262°
2026-05-07 16:49 -2.19258 -53.38229 11995 ft 269 kts 262°
2026-05-07 16:49 -2.19559 -53.40074 11994 ft 269 kts 262°
2026-05-07 16:49 -2.19860 -53.41920 11993 ft 269 kts 262°
2026-05-07 16:50 -2.20161 -53.43769 11996 ft 269 kts 262°
2026-05-07 16:50 -2.20463 -53.45616 11989 ft 269 kts 262°
2026-05-07 16:50 -2.20764 -53.47463 11994 ft 269 kts 262°
2026-05-07 16:50 -2.21065 -53.49311 11994 ft 269 kts 262°
2026-05-07 16:51 -2.21366 -53.51158 11994 ft 269 kts 262°
2026-05-07 16:51 -2.21667 -53.53004 11994 ft 269 kts 262°
2026-05-07 16:51 -2.21968 -53.54851 11993 ft 269 kts 262°
2026-05-07 16:51 -2.22270 -53.56699 11994 ft 269 kts 262°
2026-05-07 16:52 -2.22570 -53.58546 11995 ft 269 kts 262°
2026-05-07 16:52 -2.22870 -53.60390 11993 ft 269 kts 262°
2026-05-07 16:52 -2.23173 -53.62242 11996 ft 269 kts 262°
2026-05-07 16:52 -2.23473 -53.64089 11988 ft 269 kts 262°
2026-05-07 16:53 -2.23778 -53.65961 11993 ft 269 kts 262°
2026-05-07 16:53 -2.24079 -53.67807 11994 ft 269 kts 262°
2026-05-07 16:53 -2.24379 -53.69652 11990 ft 269 kts 262°
2026-05-07 16:53 -2.24681 -53.71499 11996 ft 270 kts 262°
2026-05-07 16:54 -2.24982 -53.73355 11994 ft 270 kts 262°
2026-05-07 16:54 -2.25284 -53.75206 11995 ft 270 kts 262°
2026-05-07 16:54 -2.25585 -53.77055 11994 ft 269 kts 262°
2026-05-07 16:54 -2.25886 -53.78902 11995 ft 269 kts 262°
2026-05-07 16:55 -2.26187 -53.80751 11994 ft 269 kts 262°
2026-05-07 16:55 -2.26487 -53.82600 11994 ft 269 kts 262°
2026-05-07 16:55 -2.26788 -53.84447 11994 ft 269 kts 262°
2026-05-07 16:55 -2.27089 -53.86295 11991 ft 269 kts 262°
2026-05-07 16:56 -2.27391 -53.88142 11989 ft 269 kts 262°
2026-05-07 16:56 -2.27691 -53.89990 11987 ft 269 kts 262°
2026-05-07 16:56 -2.28293 -53.93690 11994 ft 269 kts 262°
2026-05-07 16:57 -2.28595 -53.95536 11994 ft 269 kts 262°
2026-05-07 16:57 -2.28896 -53.97384 11994 ft 269 kts 262°
2026-05-07 16:57 -2.29197 -53.99231 11995 ft 269 kts 262°
2026-05-07 16:57 -2.29498 -54.01079 11994 ft 269 kts 262°
2026-05-07 16:58 -2.29799 -54.02926 11994 ft 269 kts 262°
2026-05-07 16:58 -2.30103 -54.04799 11994 ft 269 kts 262°
2026-05-07 16:58 -2.30405 -54.06646 11994 ft 269 kts 262°
2026-05-07 16:58 -2.30706 -54.08494 11995 ft 269 kts 262°
2026-05-07 16:59 -2.31006 -54.10341 11994 ft 269 kts 262°
2026-05-07 16:59 -2.31306 -54.12189 11991 ft 269 kts 262°
2026-05-07 16:59 -2.31608 -54.14037 11990 ft 269 kts 262°
2026-05-07 16:59 -2.31909 -54.15885 11987 ft 269 kts 262°
2026-05-07 17:00 -2.32209 -54.17732 11994 ft 269 kts 262°
2026-05-07 17:00 -2.32510 -54.19579 11994 ft 269 kts 262°
2026-05-07 17:00 -2.32810 -54.21424 11994 ft 269 kts 262°
2026-05-07 17:00 -2.33110 -54.23271 11994 ft 269 kts 262°
2026-05-07 17:01 -2.33412 -54.25118 11994 ft 269 kts 262°
2026-05-07 17:01 -2.33711 -54.26963 11985 ft 269 kts 262°
2026-05-07 17:01 -2.34012 -54.28811 11988 ft 269 kts 262°
2026-05-07 17:01 -2.34312 -54.30658 11983 ft 269 kts 262°
2026-05-07 17:02 -2.34613 -54.32504 11995 ft 269 kts 262°
2026-05-07 17:02 -2.34912 -54.34349 11994 ft 269 kts 262°
2026-05-07 17:02 -2.35212 -54.36196 11993 ft 269 kts 262°
2026-05-07 17:02 -2.35513 -54.38042 11994 ft 269 kts 262°
2026-05-07 17:03 -2.35813 -54.39890 11989 ft 269 kts 262°
2026-05-07 17:03 -2.36114 -54.41732 11989 ft 269 kts 262°
2026-05-07 17:03 -2.36413 -54.43583 11994 ft 269 kts 262°
2026-05-07 17:03 -2.36714 -54.45432 11994 ft 269 kts 262°
2026-05-07 17:04 -2.37018 -54.47300 11994 ft 269 kts 262°
2026-05-07 17:04 -2.37318 -54.49149 11994 ft 269 kts 262°
2026-05-07 17:04 -2.37615 -54.50997 11995 ft 269 kts 263°
2026-05-07 17:04 -2.37852 -54.52853 11993 ft 269 kts 263°
2026-05-07 17:05 -2.38121 -54.54705 11993 ft 269 kts 262°
2026-05-07 17:05 -2.38388 -54.56555 11990 ft 269 kts 263°
2026-05-07 17:05 -2.38644 -54.58412 11993 ft 269 kts 263°
2026-05-07 17:05 -2.38898 -54.60267 11994 ft 269 kts 263°
2026-05-07 17:06 -2.39155 -54.62119 11993 ft 269 kts 263°
2026-05-07 17:06 -2.39412 -54.63973 11989 ft 269 kts 263°
2026-05-07 17:06 -2.39669 -54.65827 11990 ft 269 kts 263°
2026-05-07 17:06 -2.39925 -54.67681 11994 ft 269 kts 263°
2026-05-07 17:07 -2.40181 -54.69535 11994 ft 269 kts 263°
2026-05-07 17:07 -2.40438 -54.71388 11994 ft 269 kts 263°
2026-05-07 17:07 -2.40694 -54.73241 11994 ft 269 kts 263°
2026-05-07 17:07 -2.40951 -54.75093 11988 ft 269 kts 263°
2026-05-07 17:08 -2.41207 -54.76946 11994 ft 269 kts 263°
2026-05-07 17:08 -2.41463 -54.78800 11994 ft 269 kts 263°
2026-05-07 17:08 -2.41720 -54.80653 11993 ft 269 kts 263°
2026-05-07 17:08 -2.41975 -54.82507 11992 ft 269 kts 263°
2026-05-07 17:09 -2.42231 -54.84363 11988 ft 269 kts 263°
2026-05-07 17:09 -2.42489 -54.86218 11994 ft 270 kts 263°
2026-05-07 17:09 -2.42747 -54.88072 11994 ft 269 kts 263°
2026-05-07 17:09 -2.43001 -54.89928 11994 ft 269 kts 263°
2026-05-07 17:10 -2.43257 -54.91783 11994 ft 269 kts 263°
2026-05-07 17:10 -2.43514 -54.93637 11988 ft 269 kts 263°
2026-05-07 17:10 -2.43771 -54.95491 11987 ft 269 kts 263°
2026-05-07 17:10 -2.44026 -54.97345 11994 ft 269 kts 263°
2026-05-07 17:11 -2.44199 -54.98596 11993 ft 269 kts 263°
2026-05-07 17:11 -2.44456 -55.00450 11994 ft 269 kts 263°
2026-05-07 17:11 -2.44711 -55.02303 11995 ft 269 kts 263°
2026-05-07 17:11 -2.44967 -55.04155 11986 ft 269 kts 263°
2026-05-07 17:12 -2.45223 -55.06008 11994 ft 269 kts 263°
2026-05-07 17:12 -2.45480 -55.07862 11994 ft 269 kts 263°
2026-05-07 17:12 -2.45736 -55.09719 11994 ft 269 kts 263°
2026-05-07 17:12 -2.45991 -55.11575 11986 ft 269 kts 263°
2026-05-07 17:13 -2.46247 -55.13431 11993 ft 269 kts 263°
2026-05-07 17:13 -2.46503 -55.15285 11993 ft 269 kts 263°
2026-05-07 17:13 -2.46760 -55.17140 11995 ft 269 kts 263°
2026-05-07 17:13 -2.47012 -55.18995 11991 ft 270 kts 263°
2026-05-07 17:14 -2.47270 -55.20851 11986 ft 269 kts 263°
2026-05-07 17:14 -2.47531 -55.22707 11985 ft 269 kts 263°
2026-05-07 17:14 -2.47784 -55.24562 11993 ft 269 kts 263°
2026-05-07 17:14 -2.48039 -55.26417 11994 ft 269 kts 263°
2026-05-07 17:15 -2.48295 -55.28272 11992 ft 269 kts 263°
2026-05-07 17:15 -2.48551 -55.30126 11986 ft 269 kts 263°
2026-05-07 17:15 -2.48810 -55.32005 11985 ft 269 kts 263°
2026-05-07 17:15 -2.49065 -55.33858 11995 ft 269 kts 263°
2026-05-07 17:16 -2.49322 -55.35716 11993 ft 270 kts 263°
2026-05-07 17:16 -2.49578 -55.37579 11995 ft 270 kts 263°
2026-05-07 17:16 -2.49809 -55.39444 11996 ft 270 kts 265°
2026-05-07 17:16 -2.50014 -55.41314 11992 ft 271 kts 264°
2026-05-07 17:17 -2.50248 -55.43181 11994 ft 270 kts 264°
2026-05-07 17:17 -2.50468 -55.45045 11988 ft 270 kts 264°
2026-05-07 17:17 -2.50680 -55.46908 11993 ft 270 kts 264°
2026-05-07 17:17 -2.50893 -55.48768 11993 ft 269 kts 264°
2026-05-07 17:18 -2.51107 -55.50629 11994 ft 269 kts 264°
2026-05-07 17:18 -2.51323 -55.52490 11993 ft 269 kts 264°
2026-05-07 17:18 -2.51537 -55.54351 11993 ft 269 kts 264°
2026-05-07 17:18 -2.51752 -55.56210 11993 ft 269 kts 264°
2026-05-07 17:19 -2.51965 -55.58071 11989 ft 269 kts 264°
2026-05-07 17:19 -2.52181 -55.59929 11985 ft 269 kts 264°
2026-05-07 17:19 -2.52395 -55.61789 11993 ft 269 kts 264°
2026-05-07 17:19 -2.52609 -55.63650 11993 ft 269 kts 264°
2026-05-07 17:20 -2.52824 -55.65511 11993 ft 269 kts 264°
2026-05-07 17:20 -2.53038 -55.67369 11993 ft 269 kts 264°
2026-05-07 17:20 -2.53253 -55.69231 11994 ft 269 kts 264°
2026-05-07 17:20 -2.53466 -55.71092 11993 ft 269 kts 264°
2026-05-07 17:21 -2.53680 -55.72953 11993 ft 269 kts 264°
2026-05-07 17:21 -2.53896 -55.74811 11993 ft 269 kts 264°
2026-05-07 17:21 -2.54109 -55.76671 11991 ft 269 kts 264°
2026-05-07 17:21 -2.54323 -55.78531 11993 ft 269 kts 264°
2026-05-07 17:22 -2.54537 -55.80391 11993 ft 269 kts 264°
2026-05-07 17:22 -2.54752 -55.82251 11993 ft 269 kts 264°
2026-05-07 17:22 -2.54966 -55.84111 11994 ft 269 kts 264°
2026-05-07 17:22 -2.55180 -55.85971 11993 ft 269 kts 264°
2026-05-07 17:23 -2.55397 -55.87858 11993 ft 269 kts 264°
2026-05-07 17:23 -2.55610 -55.89719 11993 ft 269 kts 264°
2026-05-07 17:23 -2.55824 -55.91578 11990 ft 269 kts 264°
2026-05-07 17:23 -2.56040 -55.93439 11989 ft 269 kts 264°
2026-05-07 17:24 -2.56253 -55.95301 11993 ft 270 kts 264°
2026-05-07 17:24 -2.56467 -55.97163 11993 ft 269 kts 264°
2026-05-07 17:24 -2.56681 -55.99025 11992 ft 270 kts 264°
2026-05-07 17:24 -2.56895 -56.00887 11994 ft 269 kts 264°
2026-05-07 17:25 -2.57109 -56.02746 11993 ft 269 kts 264°
2026-05-07 17:25 -2.57324 -56.04607 11993 ft 269 kts 264°
2026-05-07 17:25 -2.57536 -56.06468 11989 ft 269 kts 264°
2026-05-07 17:25 -2.57750 -56.08329 11993 ft 269 kts 264°
2026-05-07 17:26 -2.57964 -56.10191 11993 ft 269 kts 264°
2026-05-07 17:26 -2.58178 -56.12052 11994 ft 269 kts 264°
2026-05-07 17:26 -2.58392 -56.13913 11994 ft 269 kts 264°
2026-05-07 17:26 -2.58605 -56.15770 11993 ft 269 kts 264°
2026-05-07 17:27 -2.58819 -56.17633 11989 ft 269 kts 264°
2026-05-07 17:27 -2.59032 -56.19495 11993 ft 269 kts 264°
2026-05-07 17:27 -2.59246 -56.21356 11993 ft 269 kts 264°
2026-05-07 17:27 -2.59461 -56.23217 11994 ft 269 kts 264°
2026-05-07 17:28 -2.59673 -56.25079 11993 ft 269 kts 264°
2026-05-07 17:28 -2.59887 -56.26938 11994 ft 269 kts 264°
2026-05-07 17:28 -2.60101 -56.28802 11991 ft 269 kts 264°
2026-05-07 17:28 -2.60316 -56.30661 11988 ft 269 kts 264°
2026-05-07 17:29 -2.60530 -56.32521 11986 ft 269 kts 264°
2026-05-07 17:29 -2.60743 -56.34382 11993 ft 269 kts 264°
2026-05-07 17:29 -2.60956 -56.36243 11993 ft 269 kts 264°
2026-05-07 17:29 -2.61173 -56.38128 11993 ft 269 kts 264°
2026-05-07 17:30 -2.61387 -56.39988 11993 ft 269 kts 264°
2026-05-07 17:30 -2.61601 -56.41849 11995 ft 269 kts 264°
2026-05-07 17:30 -2.61815 -56.43707 11993 ft 269 kts 264°
2026-05-07 17:30 -2.62031 -56.45569 11994 ft 269 kts 264°
2026-05-07 17:31 -2.62245 -56.47427 11990 ft 269 kts 264°
2026-05-07 17:31 -2.62459 -56.49287 11987 ft 269 kts 264°
2026-05-07 17:31 -2.62676 -56.51148 11987 ft 270 kts 264°
2026-05-07 17:31 -2.62888 -56.53013 11994 ft 270 kts 264°
2026-05-07 17:32 -2.63104 -56.54874 11993 ft 270 kts 264°
2026-05-07 17:32 -2.63320 -56.56737 11993 ft 270 kts 264°
2026-05-07 17:32 -2.63535 -56.58601 11992 ft 270 kts 264°
2026-05-07 17:32 -2.63678 -56.59837 11995 ft 270 kts 264°
2026-05-07 17:33 -2.63964 -56.62328 11993 ft 270 kts 264°
2026-05-07 17:33 -2.64179 -56.64192 11993 ft 270 kts 264°
2026-05-07 17:33 -2.64393 -56.66053 11994 ft 270 kts 264°
2026-05-07 17:33 -2.64608 -56.67915 11993 ft 270 kts 264°
2026-05-07 17:34 -2.64824 -56.69780 11994 ft 270 kts 264°
2026-05-07 17:34 -2.65038 -56.71642 11991 ft 270 kts 264°
2026-05-07 17:34 -2.65253 -56.73505 11989 ft 270 kts 264°
2026-05-07 17:34 -2.65467 -56.75369 11993 ft 270 kts 264°
2026-05-07 17:35 -2.65681 -56.77230 11994 ft 270 kts 264°
2026-05-07 17:35 -2.65900 -56.79118 11989 ft 270 kts 264°
2026-05-07 17:35 -2.66114 -56.80979 11995 ft 270 kts 264°
2026-05-07 17:35 -2.66328 -56.82846 11993 ft 270 kts 264°
2026-05-07 17:36 -2.66544 -56.84707 11993 ft 270 kts 264°
2026-05-07 17:36 -2.66758 -56.86571 11993 ft 270 kts 264°
2026-05-07 17:36 -2.66972 -56.88431 11994 ft 270 kts 264°
2026-05-07 17:36 -2.67187 -56.90294 11993 ft 269 kts 264°
2026-05-07 17:37 -2.67401 -56.92154 11995 ft 269 kts 264°
2026-05-07 17:37 -2.67614 -56.94016 11989 ft 270 kts 264°
2026-05-07 17:37 -2.67829 -56.95880 11988 ft 270 kts 264°
2026-05-07 17:37 -2.68043 -56.97744 11995 ft 270 kts 264°
2026-05-07 17:38 -2.68259 -56.99608 11985 ft 270 kts 264°
2026-05-07 17:38 -2.68473 -57.01474 11995 ft 270 kts 264°
2026-05-07 17:38 -2.68687 -57.03338 11994 ft 270 kts 264°
2026-05-07 17:38 -2.68901 -57.05202 11994 ft 270 kts 264°
2026-05-07 17:39 -2.69115 -57.07065 11994 ft 270 kts 264°
2026-05-07 17:39 -2.69329 -57.08928 11988 ft 270 kts 264°
2026-05-07 17:39 -2.69544 -57.10790 11986 ft 269 kts 264°
2026-05-07 17:39 -2.69758 -57.12652 11994 ft 270 kts 264°
2026-05-07 17:40 -2.69971 -57.14513 11994 ft 269 kts 264°
2026-05-07 17:40 -2.70186 -57.16374 11994 ft 269 kts 264°
2026-05-07 17:40 -2.70399 -57.18235 11994 ft 269 kts 264°
2026-05-07 17:40 -2.70611 -57.20097 11994 ft 270 kts 264°
2026-05-07 17:41 -2.70827 -57.21960 11994 ft 269 kts 264°
2026-05-07 17:41 -2.71043 -57.23821 11991 ft 269 kts 264°
2026-05-07 17:41 -2.71258 -57.25707 11986 ft 270 kts 264°
2026-05-07 17:41 -2.71470 -57.27568 11994 ft 269 kts 264°
2026-05-07 17:42 -2.71684 -57.29427 11995 ft 269 kts 264°
2026-05-07 17:42 -2.71898 -57.31287 11993 ft 269 kts 264°
2026-05-07 17:42 -2.72112 -57.33148 11993 ft 269 kts 264°
2026-05-07 17:42 -2.72324 -57.35009 11994 ft 269 kts 264°
2026-05-07 17:43 -2.72465 -57.36242 11993 ft 270 kts 264°
2026-05-07 17:43 -2.72753 -57.38738 11991 ft 270 kts 264°
2026-05-07 17:43 -2.72894 -57.39973 11994 ft 270 kts 264°
2026-05-07 17:43 -2.73180 -57.42467 11993 ft 270 kts 264°
2026-05-07 17:44 -2.73322 -57.43700 11994 ft 270 kts 264°
2026-05-07 17:44 -2.73535 -57.45564 11993 ft 270 kts 264°
2026-05-07 17:44 -2.73749 -57.47427 11987 ft 270 kts 264°
2026-05-07 17:44 -2.73962 -57.49291 11993 ft 270 kts 264°
2026-05-07 17:45 -2.74176 -57.51154 11993 ft 269 kts 264°
2026-05-07 17:45 -2.74390 -57.53015 11994 ft 269 kts 264°
2026-05-07 17:45 -2.74602 -57.54876 11993 ft 269 kts 264°
2026-05-07 17:45 -2.74816 -57.56737 11994 ft 269 kts 264°
2026-05-07 17:46 -2.75031 -57.58619 11989 ft 269 kts 264°
2026-05-07 17:46 -2.75245 -57.60481 11989 ft 269 kts 264°
2026-05-07 17:46 -2.75457 -57.62340 11994 ft 269 kts 264°
2026-05-07 17:46 -2.75672 -57.64201 11995 ft 270 kts 264°
2026-05-07 17:47 -2.75883 -57.66066 11993 ft 270 kts 264°
2026-05-07 17:47 -2.76097 -57.67931 11993 ft 270 kts 264°
2026-05-07 17:47 -2.76310 -57.69794 11986 ft 269 kts 264°
2026-05-07 17:47 -2.76523 -57.71656 11993 ft 269 kts 264°
2026-05-07 17:48 -2.76736 -57.73513 11994 ft 269 kts 264°
2026-05-07 17:48 -2.76949 -57.75375 11993 ft 269 kts 264°
2026-05-07 17:48 -2.77159 -57.77237 11993 ft 269 kts 264°
2026-05-07 17:48 -2.77368 -57.79095 11994 ft 269 kts 264°
2026-05-07 17:49 -2.77580 -57.80957 11994 ft 269 kts 264°
2026-05-07 17:49 -2.77790 -57.82813 11993 ft 269 kts 264°
2026-05-07 17:49 -2.78002 -57.84680 11993 ft 270 kts 264°
2026-05-07 17:49 -2.78216 -57.86544 11993 ft 270 kts 264°
2026-05-07 17:50 -2.78423 -57.88404 11993 ft 270 kts 264°
2026-05-07 17:50 -2.78634 -57.90269 11994 ft 269 kts 264°
2026-05-07 17:50 -2.78854 -57.92131 11993 ft 269 kts 264°
2026-05-07 17:50 -2.79067 -57.93991 11993 ft 269 kts 264°
2026-05-07 17:51 -2.79279 -57.95852 11990 ft 269 kts 264°
2026-05-07 17:51 -2.79490 -57.97712 11996 ft 269 kts 264°
2026-05-07 17:51 -2.79703 -57.99574 11994 ft 269 kts 264°
2026-05-07 17:51 -2.79919 -58.01435 11993 ft 269 kts 264°
2026-05-07 17:52 -2.80131 -58.03294 11993 ft 269 kts 264°
2026-05-07 17:52 -2.80346 -58.05179 11993 ft 269 kts 264°
2026-05-07 17:52 -2.80558 -58.07040 11985 ft 269 kts 264°
2026-05-07 17:52 -2.80772 -58.08899 11994 ft 269 kts 264°
2026-05-07 17:53 -2.80984 -58.10760 11995 ft 269 kts 264°
2026-05-07 17:53 -2.81197 -58.12621 11993 ft 269 kts 264°
2026-05-07 17:53 -2.81410 -58.14483 11994 ft 270 kts 264°
2026-05-07 17:53 -2.81623 -58.16347 11987 ft 270 kts 264°
2026-05-07 17:54 -2.81836 -58.18211 11994 ft 270 kts 264°
2026-05-07 17:54 -2.82048 -58.20074 11993 ft 270 kts 264°
2026-05-07 17:54 -2.82263 -58.21939 11993 ft 270 kts 264°
2026-05-07 17:54 -2.82475 -58.23801 11994 ft 269 kts 264°
2026-05-07 17:55 -2.82688 -58.25663 11990 ft 269 kts 264°
2026-05-07 17:55 -2.82900 -58.27524 11994 ft 269 kts 264°
2026-05-07 17:55 -2.83111 -58.29386 11993 ft 269 kts 264°
2026-05-07 17:55 -2.83326 -58.31248 11995 ft 270 kts 264°
2026-05-07 17:56 -2.83538 -58.33109 11987 ft 270 kts 264°
2026-05-07 17:56 -2.83752 -58.34973 11993 ft 269 kts 264°
2026-05-07 17:56 -2.83964 -58.36833 11995 ft 269 kts 264°
2026-05-07 17:56 -2.84176 -58.38696 11994 ft 270 kts 264°
2026-05-07 17:57 -2.84388 -58.40560 11990 ft 270 kts 264°
2026-05-07 17:57 -2.84532 -58.41817 11990 ft 269 kts 264°
2026-05-07 17:57 -2.84813 -58.44284 11994 ft 269 kts 264°
2026-05-07 17:57 -2.85025 -58.46143 11994 ft 269 kts 264°
2026-05-07 17:58 -2.85238 -58.48005 11989 ft 269 kts 264°
2026-05-07 17:58 -2.85452 -58.49865 11981 ft 269 kts 263°
2026-05-07 17:58 -2.85727 -58.51718 11989 ft 269 kts 263°
2026-05-07 17:58 -2.85978 -58.53574 11994 ft 269 kts 263°
2026-05-07 17:59 -2.86229 -58.55430 11994 ft 269 kts 263°
2026-05-07 17:59 -2.86492 -58.57310 11993 ft 269 kts 263°
2026-05-07 17:59 -2.86752 -58.59162 11993 ft 269 kts 263°
2026-05-07 17:59 -2.87012 -58.61018 11993 ft 269 kts 263°
2026-05-07 18:00 -2.87269 -58.62868 11991 ft 269 kts 263°
2026-05-07 18:00 -2.87530 -58.64729 11995 ft 269 kts 263°
2026-05-07 18:00 -2.87789 -58.66584 11994 ft 269 kts 263°
2026-05-07 18:00 -2.88048 -58.68439 11994 ft 269 kts 263°
2026-05-07 18:01 -2.88306 -58.70294 11995 ft 269 kts 263°
2026-05-07 18:01 -2.88566 -58.72150 11993 ft 269 kts 263°
2026-05-07 18:01 -2.88824 -58.74004 11988 ft 269 kts 263°
2026-05-07 18:01 -2.89083 -58.75859 11994 ft 269 kts 263°
2026-05-07 18:02 -2.89601 -58.79568 11991 ft 269 kts 263°
2026-05-07 18:02 -2.89860 -58.81425 11994 ft 269 kts 263°
2026-05-07 18:02 -2.90118 -58.83281 11987 ft 269 kts 263°
2026-05-07 18:03 -2.90377 -58.85137 11987 ft 269 kts 263°
2026-05-07 18:03 -2.90637 -58.86990 11990 ft 269 kts 263°
2026-05-07 18:03 -2.90895 -58.88845 11982 ft 269 kts 263°
2026-05-07 18:03 -2.91153 -58.90700 11982 ft 269 kts 263°
2026-05-07 18:04 -2.91412 -58.92556 11994 ft 269 kts 263°
2026-05-07 18:04 -2.91671 -58.94411 11994 ft 269 kts 263°
2026-05-07 18:04 -2.91929 -58.96266 11994 ft 269 kts 263°
2026-05-07 18:04 -2.92188 -58.98120 11993 ft 269 kts 263°
2026-05-07 18:05 -2.92446 -58.99978 11995 ft 269 kts 263°
2026-05-07 18:05 -2.92705 -59.01834 11995 ft 270 kts 263°
2026-05-07 18:05 -2.92967 -59.03715 11994 ft 269 kts 263°
2026-05-07 18:05 -2.93226 -59.05570 11993 ft 269 kts 263°
2026-05-07 18:06 -2.93483 -59.07422 11993 ft 269 kts 263°
2026-05-07 18:06 -2.93742 -59.09281 11994 ft 269 kts 263°
2026-05-07 18:06 -2.94001 -59.11137 11994 ft 269 kts 263°
2026-05-07 18:06 -2.94258 -59.12992 11993 ft 269 kts 263°
2026-05-07 18:07 -2.94518 -59.14847 11994 ft 269 kts 263°
2026-05-07 18:07 -2.94774 -59.16700 11994 ft 269 kts 263°
2026-05-07 18:07 -2.95033 -59.18555 11994 ft 269 kts 263°
2026-05-07 18:07 -2.95291 -59.20411 11994 ft 269 kts 263°
2026-05-07 18:08 -2.95549 -59.22263 11990 ft 269 kts 263°
2026-05-07 18:08 -2.95808 -59.24122 11994 ft 269 kts 263°
2026-05-07 18:08 -2.96065 -59.25973 11991 ft 269 kts 263°
2026-05-07 18:08 -2.96323 -59.27830 11991 ft 269 kts 263°
2026-05-07 18:09 -2.96582 -59.29688 11990 ft 269 kts 263°
2026-05-07 18:09 -2.96839 -59.31541 11995 ft 269 kts 263°
2026-05-07 18:09 -2.97098 -59.33396 11994 ft 269 kts 263°
2026-05-07 18:09 -2.97355 -59.35252 11994 ft 269 kts 263°
2026-05-07 18:10 -2.97614 -59.37107 11994 ft 269 kts 263°
2026-05-07 18:10 -2.97871 -59.38963 11995 ft 269 kts 263°
2026-05-07 18:10 -2.98129 -59.40819 11994 ft 269 kts 263°
2026-05-07 18:10 -2.98386 -59.42672 11994 ft 269 kts 263°
2026-05-07 18:11 -2.98644 -59.44528 11993 ft 269 kts 263°
2026-05-07 18:11 -2.98818 -59.45783 11993 ft 269 kts 263°
2026-05-07 18:11 -2.99160 -59.48239 11996 ft 269 kts 263°
2026-05-07 18:11 -2.99416 -59.50097 11994 ft 270 kts 263°
2026-05-07 18:12 -2.99676 -59.51953 11994 ft 269 kts 263°
2026-05-07 18:12 -2.99934 -59.53807 11994 ft 269 kts 263°
2026-05-07 18:12 -3.00194 -59.55689 11994 ft 269 kts 263°
2026-05-07 18:12 -3.00451 -59.57545 11995 ft 269 kts 263°
2026-05-07 18:13 -3.00709 -59.59398 11995 ft 269 kts 263°
2026-05-07 18:13 -3.00966 -59.61253 11994 ft 269 kts 263°
2026-05-07 18:13 -3.01224 -59.63109 11994 ft 269 kts 263°
2026-05-07 18:13 -3.01481 -59.64964 11994 ft 269 kts 263°
2026-05-07 18:14 -3.01738 -59.66819 11994 ft 269 kts 263°
2026-05-07 18:14 -3.01995 -59.68675 11988 ft 269 kts 263°
2026-05-07 18:14 -3.02254 -59.70531 11987 ft 269 kts 263°
2026-05-07 18:14 -3.02510 -59.72384 11994 ft 269 kts 263°
2026-05-07 18:15 -3.02767 -59.74240 11993 ft 269 kts 263°
2026-05-07 18:15 -3.03024 -59.76096 11983 ft 270 kts 263°
2026-05-07 18:15 -3.03195 -59.77330 11913 ft 272 kts 263°
2026-05-07 18:15 -3.03540 -59.79864 11667 ft 277 kts 263°
2026-05-07 18:16 -3.03717 -59.81158 11521 ft 279 kts 263°
2026-05-07 18:16 -3.03985 -59.83088 11293 ft 281 kts 263°
2026-05-07 18:16 -3.04254 -59.85025 11060 ft 282 kts 263°
2026-05-07 18:16 -3.04523 -59.86967 10826 ft 282 kts 263°
2026-05-07 18:17 -3.04792 -59.88906 10591 ft 281 kts 263°
2026-05-07 18:17 -3.05066 -59.90841 10355 ft 281 kts 263°
2026-05-07 18:17 -3.05328 -59.92777 10120 ft 281 kts 263°
2026-05-07 18:17 -3.05595 -59.94707 9879 ft 280 kts 263°
2026-05-07 18:18 -3.05864 -59.96632 9652 ft 279 kts 263°
2026-05-07 18:18 -3.06129 -59.98553 9419 ft 278 kts 263°
2026-05-07 18:18 -3.06395 -60.00469 9188 ft 278 kts 263°
2026-05-07 18:18 -3.06661 -60.02378 8959 ft 277 kts 263°
2026-05-07 18:19 -3.06921 -60.04284 8725 ft 276 kts 263°
2026-05-07 18:19 -3.07186 -60.06185 8496 ft 276 kts 263°
2026-05-07 18:19 -3.07448 -60.08084 8265 ft 275 kts 263°
2026-05-07 18:19 -3.07712 -60.09982 8033 ft 275 kts 263°
2026-05-07 18:20 -3.07970 -60.11870 7805 ft 273 kts 263°
2026-05-07 18:20 -3.08231 -60.13750 7577 ft 272 kts 263°
2026-05-07 18:20 -3.08491 -60.15622 7351 ft 271 kts 263°
2026-05-07 18:20 -3.08748 -60.17490 7124 ft 271 kts 263°
2026-05-07 18:21 -3.09006 -60.19349 6899 ft 270 kts 263°
2026-05-07 18:21 -3.09262 -60.21207 6674 ft 269 kts 263°
2026-05-07 18:21 -3.09519 -60.23059 6450 ft 268 kts 263°
2026-05-07 18:21 -3.09774 -60.24907 6226 ft 268 kts 263°
2026-05-07 18:22 -3.10029 -60.26750 6002 ft 267 kts 263°
2026-05-07 18:22 -3.10198 -60.27993 5852 ft 267 kts 263°
2026-05-07 18:22 -3.10536 -60.30424 5557 ft 266 kts 263°
2026-05-07 18:22 -3.10657 -60.32287 5345 ft 265 kts 277°
2026-05-07 18:23 -3.09961 -60.33968 5140 ft 265 kts 309°
2026-05-07 18:23 -3.08498 -60.35053 4925 ft 265 kts 338°
2026-05-07 18:23 -3.06691 -60.35305 4708 ft 265 kts
2026-05-07 18:23 -3.04987 -60.34643 4489 ft 266 kts 36°
2026-05-07 18:24 -3.03857 -60.33235 4270 ft 266 kts 67°
2026-05-07 18:24 -3.03488 -60.31436 4043 ft 265 kts 83°
2026-05-07 18:24 -3.03287 -60.29583 3818 ft 265 kts 94°
2026-05-07 18:24 -3.03623 -60.27782 3588 ft 264 kts 104°
2026-05-07 18:25 -3.03923 -60.26001 3361 ft 264 kts 95°
2026-05-07 18:25 -3.03917 -60.24166 3138 ft 264 kts 88°
2026-05-07 18:25 -3.03841 -60.22339 3007 ft 260 kts 89°
2026-05-07 18:25 -3.03829 -60.20551 3001 ft 255 kts 91°
2026-05-07 18:26 -3.03849 -60.18761 2716 ft 261 kts 91°
2026-05-07 18:26 -3.03869 -60.16935 2370 ft 264 kts 91°
2026-05-07 18:26 -3.03878 -60.15147 2025 ft 240 kts 91°
2026-05-07 18:26 -3.03858 -60.13590 1725 ft 210 kts 90°
2026-05-07 18:27 -3.03838 -60.12216 1463 ft 186 kts 91°
2026-05-07 18:27 -3.03850 -60.11123 1261 ft 120 kts 91°
2026-05-07 18:27 -3.03844 -60.10405 1115 ft 95 kts 91°
2026-05-07 18:27 -3.03845 -60.09775 995 ft 88 kts 90°
2026-05-07 18:28 -3.03851 -60.09171 885 ft 88 kts 91°
2026-05-07 18:28 -3.03851 -60.08542 768 ft 92 kts 91°
2026-05-07 18:28 -3.03854 -60.07896 647 ft 94 kts 91°
2026-05-07 18:28 -3.03858 -60.07237 519 ft 95 kts 90°
2026-05-07 18:29 -3.03856 -60.06579 394 ft 94 kts 91°
2026-05-07 18:29 -3.03857 -60.05926 279 ft 93 kts 91°
2026-05-07 18:29 -3.03859 -60.05321 260 ft 81 kts 91°
2026-05-07 18:29 -3.03865 -60.04822 262 ft 61 kts 87°
2026-05-07 18:30 -3.03863 -60.04551 264 ft 17 kts 86°
2026-05-07 18:30 -3.03861 -60.04423 265 ft 20 kts 93°
2026-05-07 18:30 -3.03863 -60.04282 265 ft 21 kts 89°
2026-05-07 18:30 -3.03860 -60.04137 266 ft 21 kts 90°
2026-05-07 18:31 -3.03860 -60.03989 266 ft 21 kts 90°
2026-05-07 18:31 -3.03860 -60.03838 266 ft 20 kts 84°
2026-05-07 18:31 -3.03814 -60.03774 267 ft 7 kts 28°
2026-05-07 18:31 -3.03767 -60.03769 267 ft 8 kts 346°
2026-05-07 18:32 -3.03711 -60.03797 267 ft 10 kts 311°
2026-05-07 18:32 -3.03680 -60.03865 267 ft 11 kts 286°
2026-05-07 18:32 -3.03658 -60.03948 266 ft 13 kts 285°
2026-05-07 18:32 -3.03634 -60.04029 266 ft 12 kts 285°
2026-05-07 18:33 -3.03612 -60.04116 265 ft 14 kts 283°
2026-05-07 18:33 -3.03586 -60.04202 265 ft 11 kts 296°
2026-05-07 18:33 -3.03545 -60.04271 265 ft 13 kts 302°
2026-05-07 18:33 -3.03478 -60.04334 264 ft 14 kts 320°
2026-05-07 18:34 -3.03384 -60.04380 264 ft 16 kts 338°
2026-05-07 18:34 -3.03302 -60.04335 264 ft 17 kts 69°
2026-05-07 18:34 -3.03271 -60.04218 265 ft 18 kts 79°
2026-05-07 18:34 -3.03217 -60.04133 265 ft 12 kts
2026-05-07 18:35 -3.03165 -60.04142 265 ft 0 kts 350°